Starlink 30102

operational
NORAD ID: 57434 Int'l Des: 2023-105 Owner: SPXS Country: US Constellation: starlink
LEOCIRCULAR

Über Starlink 30102

Beschreibung wird geladen...

Live-Position

3D-Globus wird geladen...

Nächste Überflüge

Höhenverlauf

Altitude vs Time

uPlot chart will show altitude changes over time

Zweizeiliger Elementsatz

1 57434U 23105E 26035.16207483 .00002321 00000-0 18684-3 0 9999
2 57434 43.0037 84.1313 0001273 271.6666 88.4031 15.02536913140463
Epoch: 4. Feb. 2026 • Age: 11 hours

Aktueller Status

Höhe 571.5 km
Geschwindigkeit 7.58 km/s
Subsatellitenpunkt -43.11°S, 0.37°E
Startdatum 24. Juli 2023
Alter 2.5 years
Typ internet

Technische Details

Klassifizierung Payload
Masse 730.00 kg
Trockenmasse 700.00 kg
Gesamtmasse 730.00 kg
Länge 0.30 m
Durchmesser 4.10 m
Spannweite 29.00 m
Form Box + pan
Hersteller SPXS
Bus-Typ Starlink V2M
Phasenstatus In Orbit
Besitzer/Staat SPXS/US

Große Konstellationen

Loading constellations...